• In Hungary
  • List of Countries
  • For 7 days
  • Water Temperature
  • Satellite Maps
  • Weather Map
  • News
  • Weather Widgets
  • user-avatar
    Login

    Hourly Weather Greensboro

    Today, 19 October, Thursday

    Time Temperature Precipitation Wind Pressure Humidity
    00:00 +8°C° 0 mm 0 mps 747 mmHg 61%
    01:00 +8°C° 0 mm 0 mps 747 mmHg 62%
    02:00 +8°C° 0 mm 0 mps 747 mmHg 64%
    03:00 +7°C° 0 mm 0 mps 747 mmHg 65%
    04:00 +7°C° 0 mm 0 mps 747 mmHg 66%
    05:00 +8°C° 0 mm 1 mps 747 mmHg 67%
    06:00 +8°C° 0 mm 1 mps 747 mmHg 68%
    07:00 +8°C° 0 mm 1 mps 747 mmHg 69%
    08:00 +11°C° 0 mm 1 mps 747 mmHg 60%
    09:00 +15°C° 0 mm 1 mps 747 mmHg 52%
    10:00 +19°C° 0 mm 1 mps 748 mmHg 43%
    11:00 +21°C° 0 mm 1 mps 747 mmHg 40%
    12:00 +23°C° 0 mm 1 mps 747 mmHg 37%
    13:00 +25°C° 0 mm 1 mps 746 mmHg 33%
    14:00 +24°C° 0 mm 1 mps 746 mmHg 35%
    15:00 +24°C° 0 mm 1 mps 746 mmHg 37%
    16:00 +24°C° 0 mm 1 mps 745 mmHg 39%
    17:00 +21°C° 0 mm 1 mps 745 mmHg 44%
    18:00 +19°C° 0 mm 1 mps 745 mmHg 50%
    19:00 +15°C° 0 mm 1 mps 745 mmHg 56%
    20:00 +14°C° 0 mm 1 mps 746 mmHg 58%
    21:00 +14°C° 0 mm 1 mps 746 mmHg 60%
    22:00 +13°C° 0 mm 1 mps 746 mmHg 62%
    23:00 +13°C° 0 mm 1 mps 746 mmHg 64%

    Tomorrow, 20 October, Friday

    Time Temperature Precipitation Wind Pressure Humidity
    00:00 +13°C° 0 mm 1 mps 746 mmHg 66%
    01:00 +12°C° 0 mm 1 mps 746 mmHg 68%
    02:00 +12°C° 0 mm 1 mps 746 mmHg 68%
    03:00 +12°C° 0 mm 1 mps 746 mmHg 69%
    04:00 +12°C° 0 mm 1 mps 746 mmHg 70%
    05:00 +12°C° 0 mm 1 mps 746 mmHg 69%
    06:00 +12°C° 0 mm 1 mps 746 mmHg 69%
    07:00 +11°C° 0 mm 1 mps 747 mmHg 69%
    08:00 +14°C° 0 mm 1 mps 747 mmHg 61%
    09:00 +17°C° 0 mm 2 mps 747 mmHg 54%
    10:00 +21°C° 0 mm 2 mps 748 mmHg 46%
    11:00 +23°C° 0 mm 2 mps 747 mmHg 43%
    12:00 +25°C° 0 mm 1 mps 747 mmHg 40%
    13:00 +26°C° 0 mm 1 mps 746 mmHg 36%
    14:00 +26°C° 0 mm 1 mps 746 mmHg 38%
    15:00 +26°C° 0 mm 1 mps 746 mmHg 40%
    16:00 +25°C° 0 mm 1 mps 745 mmHg 42%
    17:00 +23°C° 0 mm 1 mps 746 mmHg 49%
    18:00 +20°C° 0 mm 1 mps 746 mmHg 55%
    19:00 +18°C° 0 mm 1 mps 746 mmHg 61%
    20:00 +16°C° 0 mm 1 mps 746 mmHg 63%
    21:00 +15°C° 0 mm 1 mps 747 mmHg 65%
    22:00 +15°C° 0 mm 1 mps 747 mmHg 67%
    23:00 +14°C° 0 mm 1 mps 747 mmHg 69%

    Day after tomorrow, 21 October, Saturday

    Time Temperature Precipitation Wind Pressure Humidity
    00:00 +13°C° 0 mm 0 mps 747 mmHg 71%
    01:00 +12°C° 0 mm 0 mps 747 mmHg 73%
    02:00 +12°C° 0 mm 0 mps 747 mmHg 74%
    03:00 +13°C° 0 mm 1 mps 747 mmHg 76%
    04:00 +13°C° 0 mm 1 mps 747 mmHg 77%
    05:00 +12°C° 0 mm 1 mps 748 mmHg 79%
    06:00 +12°C° 0 mm 1 mps 748 mmHg 80%
    07:00 +12°C° 0 mm 1 mps 748 mmHg 82%
    08:00 +15°C° 0 mm 1 mps 749 mmHg 73%
    09:00 +19°C° 0 mm 1 mps 749 mmHg 64%
    10:00 +22°C° 0 mm 1 mps 750 mmHg 55%
    11:00 +23°C° 0 mm 1 mps 749 mmHg 51%
    12:00 +24°C° 0 mm 1 mps 749 mmHg 47%
    13:00 +25°C° 0 mm 1 mps 748 mmHg 43%
    14:00 +25°C° 0 mm 1 mps 748 mmHg 45%
    15:00 +25°C° 0 mm 1 mps 748 mmHg 46%
    16:00 +25°C° 0 mm 1 mps 748 mmHg 48%
    17:00 +23°C° 0 mm 1 mps 748 mmHg 55%
    18:00 +21°C° 0 mm 1 mps 748 mmHg 62%
    19:00 +18°C° 0 mm 1 mps 748 mmHg 68%
    20:00 +18°C° 0 mm 1 mps 749 mmHg 71%
    21:00 +16°C° 0 mm 1 mps 749 mmHg 73%
    22:00 +16°C° 0 mm 1 mps 749 mmHg 76%
    23:00 +16°C° 0 mm 1 mps 749 mmHg 78%

    22 October, Sunday

    Time Temperature Precipitation Wind Pressure Humidity
    00:00 +15°C° 0 mm 1 mps 749 mmHg 81%
    01:00 +15°C° 0 mm 1 mps 748 mmHg 83%
    02:00 +13°C° 0 mm 0 mps 748 mmHg 85%
    03:00 +13°C° 0 mm 0 mps 748 mmHg 87%
    04:00 +12°C° 0 mm 0 mps 748 mmHg 90%
    05:00 +12°C° 0 mm 0 mps 748 mmHg 90%
    06:00 +12°C° 0 mm 0 mps 749 mmHg 90%
    07:00 +12°C° 0 mm 0 mps 749 mmHg 90%
    08:00 +15°C° 0 mm 0 mps 749 mmHg 80%
    09:00 +19°C° 0 mm 1 mps 750 mmHg 71%
    10:00 +22°C° 0 mm 1 mps 750 mmHg 61%
    11:00 +23°C° 0 mm 1 mps 749 mmHg 57%
    12:00 +24°C° 0 mm 2 mps 749 mmHg 52%
    13:00 +25°C° 0 mm 2 mps 748 mmHg 48%
    14:00 +25°C° 0 mm 2 mps 748 mmHg 50%
    15:00 +25°C° 0 mm 2 mps 747 mmHg 51%
    16:00 +24°C° 0 mm 2 mps 746 mmHg 53%
    17:00 +23°C° 0 mm 2 mps 746 mmHg 62%
    18:00 +20°C° 0 mm 2 mps 747 mmHg 70%
    19:00 +18°C° 0 mm 2 mps 747 mmHg 78%
    20:00 +17°C° 0 mm 2 mps 747 mmHg 81%
    21:00 +17°C° 0 mm 2 mps 747 mmHg 85%
    22:00 +17°C° 0 mm 2 mps 747 mmHg 89%
    23:00 +17°C° 0 mm 2 mps 746 mmHg 91%

    23 October, Monday

    Time Temperature Precipitation Wind Pressure Humidity
    00:00 +16°C° 0 mm 2 mps 746 mmHg 92%
    01:00 +16°C° 0 mm 2 mps 745 mmHg 94%
    02:00 +16°C° 0 mm 2 mps 745 mmHg 93%
    03:00 +17°C° 0 mm 2 mps 745 mmHg 92%
    04:00 +17°C° 0 mm 2 mps 744 mmHg 91%
    05:00 +17°C° 0 mm 2 mps 744 mmHg 91%
    06:00 +17°C° 0 mm 3 mps 744 mmHg 91%
    07:00 +17°C° 0 mm 3 mps 744 mmHg 91%
    08:00 +19°C° 0 mm 3 mps 744 mmHg 89%
    09:00 +20°C° 0 mm 4 mps 743 mmHg 86%
    10:00 +21°C° 0 mm 4 mps 743 mmHg 83%
    11:00 +22°C° 0.2 mm 4 mps 742 mmHg 83%
    12:00 +22°C° 0.2 mm 4 mps 741 mmHg 83%
    13:00 +23°C° 0.2 mm 4 mps 741 mmHg 82%
    14:00 +22°C° 1.2 mm 4 mps 740 mmHg 85%
    15:00 +22°C° 1.2 mm 5 mps 739 mmHg 87%
    16:00 +22°C° 1.2 mm 5 mps 738 mmHg 89%
    17:00 +22°C° 2.2 mm 5 mps 738 mmHg 90%
    18:00 +21°C° 2.2 mm 6 mps 738 mmHg 91%
    19:00 +21°C° 2.2 mm 6 mps 737 mmHg 93%
    20:00 +21°C° 1.8 mm 7 mps 737 mmHg 92%
    21:00 +21°C° 1.8 mm 7 mps 736 mmHg 91%
    22:00 +21°C° 1.8 mm 7 mps 735 mmHg 91%
    23:00 +21°C° 3.3 mm 7 mps 735 mmHg 91%

    24 October, Tuesday

    Time Temperature Precipitation Wind Pressure Humidity
    00:00 +20°C° 3.3 mm 6 mps 734 mmHg 91%
    01:00 +20°C° 3.3 mm 6 mps 734 mmHg 91%
    02:00 +19°C° 0.8 mm 5 mps 733 mmHg 91%
    03:00 +16°C° 0.8 mm 5 mps 733 mmHg 91%
    04:00 +15°C° 0.8 mm 4 mps 733 mmHg 91%
    05:00 +15°C° 0 mm 4 mps 733 mmHg 91%
    06:00 +14°C° 0 mm 4 mps 734 mmHg 92%
    07:00 +13°C° 0 mm 4 mps 734 mmHg 93%
    08:00 +15°C° 0 mm 4 mps 734 mmHg 87%
    09:00 +17°C° 0 mm 4 mps 735 mmHg 81%
    10:00 +17°C° 0 mm 5 mps 735 mmHg 76%
    11:00 +19°C° 0 mm 5 mps 735 mmHg 68%
    12:00 +21°C° 0 mm 4 mps 735 mmHg 61%
    13:00 +22°C° 0 mm 4 mps 735 mmHg 53%
    14:00 +22°C° 0 mm 4 mps 735 mmHg 54%
    15:00 +22°C° 0 mm 3 mps 735 mmHg 54%
    16:00 +22°C° 0 mm 3 mps 735 mmHg 55%
    17:00 +20°C° 0 mm 3 mps 735 mmHg 61%
    18:00 +18°C° 0 mm 2 mps 736 mmHg 67%
    19:00 +17°C° 0 mm 2 mps 736 mmHg 73%
    20:00 +16°C° 0 mm 2 mps 736 mmHg 73%
    21:00 +15°C° 0 mm 2 mps 737 mmHg 73%
    22:00 +15°C° 0 mm 2 mps 737 mmHg 73%
    23:00 +14°C° 0 mm 2 mps 738 mmHg 74%
    Show more